This is the latest recevied weather packets stored in our database for station/object VK3BYD-3. If no packets are shown the sender has not sent any weather packets the latest 10 day(s).
| Time | Temp. | Humidity | Pressure | Rain* | Wind** | Luminosity | Snow |
|---|---|---|---|---|---|---|---|
| 1778006924 | 5° C | 98% | 1021.3 hPa | 0 mm | - | - | - |
| 1778006020 | 3.89° C | 98% | 1021.2 hPa | 0 mm | - | - | - |
| 1778005119 | 3.89° C | 97% | 1021.1 hPa | 0 mm | - | - | - |
| 1778004219 | 3.89° C | 97% | 1021.1 hPa | 0 mm | - | - | - |
| 1778003317 | 4.44° C | 97% | 1021.1 hPa | 0 mm | - | - | - |
| 1778002417 | 4.44° C | 97% | 1021 hPa | 0 mm | - | - | - |
| 1778001517 | 4.44° C | 97% | 1021.2 hPa | 0 mm | - | - | - |
| 1778000617 | 4.44° C | 97% | 1021.3 hPa | 0 mm | - | - | - |
| 1777999717 | 5° C | 97% | 1021.4 hPa | 0 mm | - | - | - |
| 1777998817 | 5° C | 97% | 1021.3 hPa | 0 mm | - | - | - |
| 1777997917 | 5° C | 97% | 1021.5 hPa | 0 mm | - | - | - |
| 1777997016 | 5.56° C | 97% | 1021.6 hPa | 0 mm | - | - | - |
| 1777996117 | 5.56° C | 97% | 1021.6 hPa | 0 mm | - | - | - |
| 1777995216 | 6.11° C | 97% | 1021.7 hPa | 0 mm | - | - | - |
| 1777994313 | 6.11° C | 97% | 1021.8 hPa | 0 mm | - | - | - |
| 1777993413 | 6.67° C | 97% | 1021.9 hPa | 0 mm | - | - | - |
| 1777992511 | 6.67° C | 97% | 1022 hPa | 0 mm | - | - | - |
| 1777991611 | 6.67° C | 96% | 1022.1 hPa | 0 mm | - | - | - |
| 1777990708 | 6.67° C | 96% | 1022.1 hPa | 0 mm | - | - | - |
| 1777989806 | 6.11° C | 95% | 1022 hPa | 0 mm | - | - | - |
| 1777988903 | 6.67° C | 95% | 1022.1 hPa | 0 mm | - | - | - |
| 1777988001 | 6.67° C | 95% | 1022.1 hPa | 0 mm | - | - | - |
| 1777987099 | 7.22° C | 95% | 1022.1 hPa | 0 mm | - | - | - |
| 1777986196 | 7.78° C | 95% | 1022.1 hPa | 0 mm | - | - | - |
| 1777985294 | 8.33° C | 94% | 1022.1 hPa | 0 mm | - | - | - |
* Rain latest hour (hover to see other rain measurements)
** Current wind speed in m/s (hover to see current wind gust speed)